Powrót do katalogu

STARLINK-30712

AktywnyŁącznośćVLEO
NORAD 57935·PAYLOAD·🇺🇸 United States

Wystrzelony Sep 25, 2023 z Vandenberg Space Force Base

Loading…

Następne Przeloty (najbliższe 24 godziny)

TLE

ŚwieżeSource: CelesTrak SupGP

Epoka: Sep 14, 2026, 20:51 UTC

1 57935C 23148A   26257.86923611  .00038096  00000+0  11254-2 0  2572
2 57935  53.1582 221.8238 0001421  96.4405 116.4129 15.34375491    14

Śledź STARLINK-30712 w czasie rzeczywistym z AllMySat

Download on the App Store